Weather History for Norfolk, NE

Change the Weather History Date:

Friday, December 30, 2011

  Actual Average Record
Temperature  
Mean Temperature 38 °F 22 °F  
Max Temperature 47 °F 32 °F 71 °F (1904)
Min Temperature 28 °F 12 °F -17 °F (1968)
Degree Days  
Heating Degree Days 27 43  
Month to date heating degree days 1123 1219  
Since 1 July heating degree days 2458 2664  
Cooling Degree Days 0 0  
Month to date cooling degree days 0 0  
Year to date cooling degree days 1059 915  
Moisture  
Dew Point 29 °F    
Average Humidity 69    
Maximum Humidity 85    
Minimum Humidity 53    
Precipitation  
Precipitation 0.00 in 0.02 in 0.85 in (2006)
Month to date precipitation 0.79 0.73  
Year to date precipitation 21.04 27.39  
Snow  
Snow 0.00 in 0.10 in - ()
Month to date snowfall 8.1 5.8  
Since 1 July snowfall 8.1 10.7  
Snow Depth 0.00 in    
Sea Level Pressure  
Sea Level Pressure 29.78 in    
Wind  
Wind Speed 13 mph (WNW)    
Max Wind Speed 26 mph    
Max Gust Speed 33 mph    
Visibility 10 miles    
Events      
T = Trace of Precipitation, MM = Missing Value Source: NWS Daily Summary

Daily Weather History Graph

Daily Weather History Graph

Search for Another Location

Airport:

Trip Planner

Search our weather history database for the weather conditions in past years. The results will help you decide how hot, cold, wet, or windy it might be!

Date:

Astronomy

Dec. 30, 2011 Rise Set
Actual Time 7:57 AM CST 5:07 PM CST
Civil Twilight 7:25 AM CST 5:38 PM CST
Nautical Twilight 6:50 AM CST 6:13 PM CST
Astronomical Twilight 6:16 AM CST 6:47 PM CST
Moon 11:11 AM CST (12/30) 11:50 PM CST (12/30)
Length of Visible Light 10h 12m
Length of Day
9h 09m
Waxing Crescent, 36% of the Moon is Illuminated
Dec 30
Waxing Crescent
Jan 1
First Quarter
Jan 9
Full
Jan 16
Last Quarter
Jan 23
New

Hourly Weather History & Observations

Time (CST) Temp. Windchill Dew Point Humidity Pressure Visibility Wind Dir Wind Speed Gust Speed Precip Events Conditions
12:56 AM 43.0 °F 35.4 °F 37.0 °F 80% 29.61 in 10.0 mi WNW 16.1 mph - N/A   Overcast
1:56 AM 41.0 °F 33.9 °F 35.1 °F 79% 29.63 in 10.0 mi WNW 12.7 mph - N/A   Clear
4:56 AM 41.0 °F 32.8 °F 28.9 °F 62% 29.66 in 10.0 mi WNW 16.1 mph - N/A   Mostly Cloudy
5:56 AM 42.1 °F 33.9 °F 28.0 °F 58% 29.69 in 10.0 mi WNW 17.3 mph 25.3 mph N/A   Mostly Cloudy
6:56 AM 39.0 °F 31.8 °F 27.0 °F 62% 29.72 in 10.0 mi WNW 11.5 mph - N/A   Mostly Cloudy
7:56 AM 42.1 °F 33.3 °F 27.0 °F 55% 29.74 in 10.0 mi WNW 19.6 mph 26.5 mph N/A   Overcast
8:56 AM 42.1 °F 33.9 °F 28.9 °F 60% 29.75 in 10.0 mi WNW 17.3 mph - N/A   Overcast
9:56 AM 43.0 °F 34.8 °F 28.9 °F 58% 29.77 in 10.0 mi WNW 18.4 mph 28.8 mph N/A   Overcast
10:56 AM 44.1 °F 35.0 °F 28.9 °F 55% 29.78 in 10.0 mi WNW 24.2 mph 32.2 mph N/A   Overcast
11:56 AM 44.1 °F 35.2 °F 28.9 °F 55% 29.79 in 10.0 mi NW 23.0 mph 31.1 mph N/A   Overcast
12:56 PM 44.1 °F 35.0 °F 30.0 °F 58% 29.79 in 10.0 mi NW 24.2 mph 32.2 mph N/A   Overcast
1:56 PM 46.9 °F - 30.9 °F 54% 29.79 in 10.0 mi NW 19.6 mph 25.3 mph N/A   Overcast
3:56 PM 45.0 °F 39.3 °F 30.9 °F 58% 29.83 in 10.0 mi NNW 11.5 mph - N/A   Clear
4:56 PM 39.0 °F - 30.0 °F 70% 29.85 in 10.0 mi Calm Calm - N/A   Clear
5:56 PM 34.0 °F 29.8 °F 28.0 °F 79% 29.87 in 10.0 mi SSW 4.6 mph - N/A   Clear
6:56 PM 34.0 °F 29.8 °F 28.0 °F 79% 29.87 in 10.0 mi SSE 4.6 mph - N/A   Clear
7:56 PM 32.0 °F - 27.0 °F 82% 29.86 in 10.0 mi Calm Calm - N/A   Clear
8:56 PM 28.9 °F 23.9 °F 25.0 °F 85% 29.85 in 10.0 mi SE 4.6 mph - N/A   Clear
9:56 PM 30.0 °F - 26.1 °F 85% 29.84 in 10.0 mi Calm Calm - N/A   Clear
10:56 PM 28.0 °F 20.0 °F 25.0 °F 88% 29.81 in 10.0 mi ESE 8.1 mph - N/A   Clear
11:56 PM 30.0 °F 22.4 °F 26.1 °F 85% 29.78 in 10.0 mi SE 8.1 mph - N/A   Clear